Orbital Elements at Epoch 2459200.5 (2020-Dec-17.0) TDB
Reference: JPL 19 (heliocentric ecliptic J2000)
Element | Value | Uncertainty (1-sigma) | Units |
e | .1098468410303761 | 3.6371e-08 | |
a | 2.353957744355746 | 1.0851e-08 | au |
q | 2.095382922219277 | 8.9952e-08 | au |
i | 7.424111659336011 | 3.5144e-06 | deg |
node | 121.6995852167792 | 3.8307e-05 | deg |
peri | 324.13445294 | 4.4772e-05 | deg |
M | 67.68205276603024 | 2.2576e-05 | deg |
tp | 2458952.490999448025 (2020-Apr-12.99099945) | 8.2514e-05 | TDB |
period | 1319.1568008044 3.61 | 9.1211e-06 2.497e-08 | d yr |
n | .2729015987943799 | 1.8869e-09 | deg/d |
Q | 2.612532566492214 | 1.2043e-08 | au |
|
| | Orbit Determination Parameters
Additional Information
|